Regional Weather Roundup
Issued by NWS

Home | Current Version | Previous Version | Graphics & Text | Print | Product List | Glossary Off
Versions: 1 2 3 4 5 6 7 8 9 10 11 12 13 14 15 16 17 18 19 20 21 22 23 24 25 26 27 28 29 30 31 32 33 34 35 36 37 38 39 40 41 42 43 44 45 46 47 48 49 50

000
ASUS43 KTOP 292059
RWRKS

WEATHER ROUNDUP FOR KANSAS
NATIONAL WEATHER SERVICE GOODLAND KS
400 PM CDT TUE JUL 29 2014

NOTE:  "FAIR" INDICATES FEW OR NO CLOUDS BELOW 12,000 FEET WITH NO
SIGNIFICANT WEATHER AND/OR OBSTRUCTIONS TO VISIBILITY.

KSZ001>006-013>018-027>032-041>047-292200-
NORTHWEST KANSAS

CITY           SKY/WX    TMP DP  RH WIND       PRES   REMARKS
GOODLAND       MOSUNNY   85  59  41 SE14      30.14F
HAYS           MOSUNNY   88  57  35 E5        30.11F
HILL CITY      MOSUNNY   88  56  33 MISG      30.11F
RUSSELL        MOSUNNY   87  58  37 SE8       30.10F
$$

KSZ061>065-074>080-084>089-292200-
SOUTHWEST KANSAS

CITY           SKY/WX    TMP DP  RH WIND       PRES   REMARKS
DODGE CITY     PTSUNNY   82  60  47 S15       30.15F
ELKHART          N/A     78  64  61 S16         N/A
GARDEN CITY    MOSUNNY   81  62  52 S15G21    30.13F
GREAT BEND     PTSUNNY   86  61  42 SE8       30.09F
LIBERAL        CLOUDY    72  63  73 SE13      30.17F
$$

KSZ066>073-081>083-090>101-292200-
SOUTHEAST KANSAS

CITY           SKY/WX    TMP DP  RH WIND       PRES   REMARKS
CHANUTE        CLOUDY    76  57  51 VRB3      30.16F
COFFEYVILLE    CLOUDY    81  60  48 N7        30.14F
HUTCHINSON     MOSUNNY   88  60  38 SE9       30.11F
NEWTON         PTSUNNY   84  57  39 NE5       30.16F
PARSONS        PTSUNNY   79  62  56 VRB3      30.16F
WICHITA INTL   MOSUNNY   88  61  40 E9        30.10F
WICHITA JABRA  PTSUNNY   88  62  41 E7        30.11F
WINFIELD       PTSUNNY   90  62  39 SE6       30.12F
$$

KSZ007>012-019>026-033>040-048>060-102>105-292200-
NORTHEAST KANSAS

CITY           SKY/WX    TMP DP  RH WIND       PRES   REMARKS
CONCORDIA      MOSUNNY   80  58  46 NE9       30.15F
EMPORIA        PTSUNNY   75  56  51 CALM      30.16F
LAWRENCE       PTSUNNY   82  57  42 VRB3      30.13F
MANHATTAN      MOSUNNY   82  57  42 E8        30.14F
OLATHE IND     MOSUNNY   84  54  35 NW12G17   30.14F
OLATHE EXE     MOSUNNY   82  56  40 N10       30.13F
SALINA         MOSUNNY   84  58  40 E13       30.13F
TOPEKA BILLARD MOSUNNY   85  57  38 VRB5      30.13F
TOPEKA FORBES  MOSUNNY   83  55  38 NW8       30.14F
$$


USA.gov is the U.S. government's official web portal to all federal, state and local government web resources and services.